TimeCST,TemperatureF,Dew PointF,Humidity,Sea Level PressureIn,VisibilityMPH,Wind Direction,Wind SpeedMPH,Gust SpeedMPH,PrecipitationIn,Events,Conditions,WindDirDegrees,DateUTC
12:15 AM,33.8,32.0,93,29.94,4.0,SSW,5.8,-,0.00,,Overcast,210,2013-02-13 06:15:00
12:32 AM,33.8,32.0,93,29.93,4.0,SSW,6.9,-,0.00,,Mostly Cloudy,200,2013-02-13 06:32:00
12:53 AM,33.1,32.0,96,29.95,5.0,SSW,6.9,-,0.00,,Overcast,200,2013-02-13 06:53:00
1:12 AM,33.8,32.0,93,29.92,4.0,SW,5.8,-,N/A,,Overcast,220,2013-02-13 07:12:00
1:53 AM,33.1,32.0,96,29.93,5.0,WSW,5.8,-,N/A,,Overcast,240,2013-02-13 07:53:00
2:06 AM,33.8,32.0,93,29.91,6.0,SW,4.6,-,N/A,,Overcast,230,2013-02-13 08:06:00
2:26 AM,32.0,32.0,100,29.90,4.0,SW,5.8,-,N/A,,Overcast,230,2013-02-13 08:26:00
2:39 AM,33.8,32.0,93,29.90,2.5,WSW,4.6,-,N/A,,Overcast,240,2013-02-13 08:39:00
2:44 AM,33.8,32.0,93,29.90,3.0,WSW,4.6,-,N/A,,Overcast,250,2013-02-13 08:44:00
2:53 AM,33.1,32.0,96,29.92,5.0,WSW,4.6,-,N/A,,Overcast,240,2013-02-13 08:53:00
3:53 AM,33.1,32.0,96,29.89,5.0,SSW,5.8,-,0.00,,Overcast,200,2013-02-13 09:53:00
4:22 AM,32.0,30.2,93,29.86,2.0,SW,4.6,-,N/A,,Overcast,220,2013-02-13 10:22:00
4:34 AM,32.0,32.0,100,29.86,1.2,SW,4.6,-,N/A,,Overcast,220,2013-02-13 10:34:00
4:53 AM,32.0,30.9,96,29.88,0.5,SW,5.8,-,N/A,Fog,Fog,230,2013-02-13 10:53:00
5:53 AM,30.9,30.0,96,29.89,0.2,SW,5.8,-,N/A,Fog,Light Freezing Fog,230,2013-02-13 11:53:00
6:18 AM,30.2,30.2,100,29.87,0.5,SW,8.1,-,N/A,Fog,Light Freezing Fog,230,2013-02-13 12:18:00
6:49 AM,30.2,30.2,100,29.88,1.0,WSW,6.9,-,N/A,,Overcast,240,2013-02-13 12:49:00
6:53 AM,30.9,30.0,96,29.91,2.5,WSW,6.9,-,N/A,,Mostly Cloudy,250,2013-02-13 12:53:00
7:01 AM,30.2,30.2,100,29.88,7.0,WSW,6.9,-,N/A,,Scattered Clouds,240,2013-02-13 13:01:00
7:53 AM,30.0,28.9,96,29.92,10.0,SW,9.2,-,N/A,,Clear,230,2013-02-13 13:53:00
8:53 AM,34.0,30.9,89,29.91,10.0,SW,10.4,-,N/A,,Clear,220,2013-02-13 14:53:00
9:53 AM,37.9,33.1,83,29.90,10.0,SW,11.5,-,N/A,,Clear,220,2013-02-13 15:53:00
10:53 AM,42.1,33.1,70,29.89,10.0,WSW,10.4,-,N/A,,Clear,240,2013-02-13 16:53:00
11:53 AM,46.0,34.0,63,29.88,10.0,WSW,11.5,-,N/A,,Partly Cloudy,250,2013-02-13 17:53:00
12:53 PM,46.9,32.0,56,29.87,10.0,West,15.0,-,N/A,,Clear,270,2013-02-13 18:53:00
1:53 PM,46.9,33.1,59,29.85,10.0,WSW,16.1,-,N/A,,Partly Cloudy,250,2013-02-13 19:53:00
2:53 PM,45.0,32.0,60,29.86,10.0,WSW,12.7,21.9,N/A,,Partly Cloudy,240,2013-02-13 20:53:00
3:53 PM,45.0,32.0,60,29.86,10.0,WSW,12.7,-,N/A,,Clear,240,2013-02-13 21:53:00
4:53 PM,43.0,30.9,62,29.86,10.0,SW,15.0,-,N/A,,Clear,230,2013-02-13 22:53:00
5:53 PM,39.0,30.9,73,29.86,10.0,SW,10.4,-,N/A,,Clear,220,2013-02-13 23:53:00
6:53 PM,36.0,30.0,79,29.87,10.0,SW,9.2,-,N/A,,Clear,220,2013-02-14 00:53:00
7:53 PM,34.0,28.9,82,29.89,10.0,SSW,9.2,-,N/A,,Clear,210,2013-02-14 01:53:00
8:53 PM,34.0,30.0,85,29.88,10.0,SSW,9.2,-,N/A,,Clear,210,2013-02-14 02:53:00
9:53 PM,35.1,30.0,82,29.88,10.0,SSW,9.2,-,N/A,,Clear,200,2013-02-14 03:53:00
10:53 PM,36.0,30.0,79,29.87,10.0,SSW,10.4,-,N/A,,Clear,200,2013-02-14 04:53:00
11:53 PM,35.1,28.9,78,29.86,10.0,SSW,11.5,-,N/A,,Clear,210,2013-02-14 05:53:00